Zurück zum Katalog

THOR ABLESTAR DEB

AktivLEO
NORAD 3164·DEBRIS·🇺🇸 United States

Gestartet Jun 29, 1961 von Cape Canaveral Space Force Station

Loading…

Nächste Überflüge (nächste 24 Stunden)

TLE

AktuellSource: Space-Track

Epoche: Sep 13, 2026, 22:16 UTC

1  3164U 61015HZ  26256.92828149  .00000632  00000-0  44040-3 0  9997
2  3164  66.7450 227.5931 0048986 337.0187  22.8706 14.04547551100278

Verfolge THOR ABLESTAR DEB in Echtzeit mit AllMySat

Download on the App Store